Regional Weather Roundup
Issued by NWS

Home | Current Version | Previous Version | Text Only | Print | Product List | Glossary On
Versions: 1 2 3 4 5 6 7 8 9 10 11 12 13 14 15 16 17 18 19 20 21 22 23 24 25 26 27 28 29 30 31 32 33 34 35 36 37 38 39 40 41 42 43 44 45 46 47 48 49 50
101
ASUS44 KJAN 271203
RWRMS

MISSISSIPPI HOURLY WEATHER ROUNDUP
NATIONAL WEATHER SERVICE JACKSON MS
700 AM CDT WED AUG 27 2014

NOTE: "FAIR: INDICATES FEW OR NO CLOUDS BELOW 12,000 FEET WITH NO
SIGNIFICANT WEATHER AND/OR OBSTRUCTIONS TO VISIBILITY.

MSZ001>002-007>008-010>013-018>021-025>028-034>036-271300-
NORTHWEST MISSISSIPPI

CITY           SKY/WX    TMP DP  RH WIND       PRES   REMARKS
CLARKSDALE     FAIR      72  72 100 CALM      30.07S
CLEVELAND      FAIR      69  68  99 CALM      30.05S
GREENWOOD      PTCLDY    70  66  87 E3        30.06R
6HR MIN TEMP:  68; 6HR MAX TEMP:  75;

GREENVILLE     PTCLDY    67  65  93 CALM      30.05R
6HR MIN TEMP:  67; 6HR MAX TEMP:  75;

GRENADA        FAIR      66  64  94 CALM      30.07R
OLIVE BRANCH   PTCLDY    70  70 100 CALM      30.09R
OXFORD         FAIR      66  64  94 CALM      30.09S
TUNICA         SUNNY     68  68 100 CALM      30.08R
$$

MSZ003>006-009-014>017-022>024-029>033-037>039-271300-
NORTHEAST MISSISSIPPI

CITY           SKY/WX    TMP DP  RH WIND       PRES   REMARKS
BELMONT        FAIR      64  64  99 CALM      30.10R FOG
COLUMBUS AFB   CLEAR     66  66 100 CALM      30.08R
6HR MIN TEMP:  65; 6HR MAX TEMP:  72;

CORINTH        FOG       66  64  94 CALM      30.09R VSB<1/4
GOLDN TRIANGLE CLEAR     64  61  88 CALM      30.08R
STARKVILLE     FAIR      63  63 100 CALM      30.08R
TUPELO         CLEAR     68  65  90 CALM      30.08R FOG
6HR MIN TEMP:  67; 6HR MAX TEMP:  72;

$$

MSZ040-058-271300-
CENTRAL MISSISSIPPI

CITY           SKY/WX    TMP DP  RH WIND       PRES   REMARKS
JACKSON INTL   PTCLDY    69  66  90 CALM      30.05R
6HR MIN TEMP:  68; 6HR MAX TEMP:  73;

JACKSON HAWKNS CLEAR     72  65  78 NE3       30.05R
6HR MIN TEMP:  70; 6HR MAX TEMP:  74;

MERIDIAN KEY   CLEAR     65  63  93 CALM      30.07R
6HR MIN TEMP:  63; 6HR MAX TEMP:  68; 6HR PCP:  0.04;

MERIDIAN NAS   PTCLDY    64  62  93 CALM      30.07R
6HR MIN TEMP:  63; 6HR MAX TEMP:  68;

RAYMOND        FAIR      66  61  82 CALM      30.04S HAZE
VICKSBURG      CLEAR     66  64  93 CALM      30.04R
6HR MIN TEMP:  66; 6HR MAX TEMP:  74;

$$

MSZ059>079-271300-
SOUTH MISSISSIPPI

CITY           SKY/WX    TMP DP  RH WIND       PRES   REMARKS
BROOKHAVEN     PTSUNNY   70  66  88 CALM      30.06R
COLUMBIA       FAIR      68  66  94 MISG      30.02R
HATTIESBURG    CLEAR     69  67  93 CALM      30.04R
6HR MIN TEMP:  68; 6HR MAX TEMP:  74;

MCCOMB         CLEAR     71  65  81 N5        30.03R
6HR MIN TEMP:  71; 6HR MAX TEMP:  74;

NATCHEZ        PTCLDY    70  64  83 CALM      30.03S
6HR MIN TEMP:  66; 6HR MAX TEMP:  72;

PINE BELT      CLEAR     70  64  83 N5        30.05R
$$

MSZ080>082-271300-
COASTAL MISSISSIPPI

CITY           SKY/WX    TMP DP  RH WIND       PRES   REMARKS
BAY ST LOUIS   CLEAR    N/A N/A N/A CALM      30.00
BILOXI         CLEAR     76  71  85 NE8       30.00R
6HR MIN TEMP:  75; 6HR MAX TEMP:  79;

PASCAGOULA     CLEAR     72  70  93 CALM      30.00R
6HR MIN TEMP:  70; 6HR MAX TEMP:  74;

GULFPORT       CLEAR     76  71  85 NE3       29.99R
6HR MIN TEMP:  75; 6HR MAX TEMP:  78;

$$



USA.gov is the U.S. government's official web portal to all federal, state and local government web resources and services.